Miscellaneous Local Product
Issued by NWS Hastings, NE

Home | Current Version | Previous Version | Graphics & Text | Print | Product List | Glossary On
Versions: 1 2 3 4 5 6 7 8 9 10 11 12 13 14 15 16 17 18 19 20 21 22 23 24 25 26 27 28 29 30 31 32 33 34 35 36 37 38 39 40 41 42 43 44 45 46 47 48 49 50
282
AXUS43 KGID 231002
MISGRI

GID CWA HOURLY WEATHER ROUNDUP
NATIONAL WEATHER SERVICE HASTINGS NE
400 AM CST MON JAN 23 2017

NOTE: "FAIR" INDICATES FEW OR NO CLOUDS BELOW 12,000 FEET WITH NO
SIGNIFICANT WEATHER AND/OR OBSTRUCTIONS TO VISIBILITY.

...SOUTH CENTRAL NEBRASKA...

CITY           SKY/WX    TMP DP  RH WIND       PRES   REMARKS
GRAND ISLAND   CLEAR     24  23  96 CALM      29.88F
HASTINGS       CLOUDY    25  23  92 CALM      29.87F
KEARNEY        PTCLDY    27  21  80 CALM      29.85F
ORD            CLEAR     20  16  84 CALM      29.85F
YORK           CLEAR     25  25 100 E7        29.89F WCI  17
AURORA         CLEAR     25  25  99 CALM      29.88F
LEXINGTON      PTCLDY    27  25  90 CALM      29.84F
HOLDREGE       PTCLDY    29  26  88 CALM      29.84F
HEBRON         PTCLDY    24  24 100 CALM      29.90S

...NEBRASKA PANHANDLE...

CITY           SKY/WX    TMP DP  RH WIND       PRES   REMARKS
CHADRON        CLEAR     19  16  88 CALM      29.71F
ALLIANCE       PTCLDY    19  16  88 S5        29.73F WCI  12
SCOTTSBLUFF    CLOUDY    25  21  85 CALM      29.74S
SIDNEY         CLOUDY    30  22  72 SW9       29.75S WCI  22

...WESTERN AND NORTH CENTRAL NEBRASKA...

CITY           SKY/WX    TMP DP  RH WIND       PRES   REMARKS
VALENTINE      CLEAR     17  14  88 NE5       29.80F WCI  10
AINSWORTH      CLOUDY    17  17  97 SE3       29.81F
ONEILL         FOG       26  26  99 CALM      29.85F VSB 3/4
BROKEN BOW     PTCLDY    26  24  92 CALM      29.83F
IMPERIAL       MOCLDY    31  24  75 S7        29.79F WCI  24
NORTH PLATTE   PTCLDY    21  19  92 CALM      29.82F
MCCOOK         CLEAR     23  22  96 CALM      29.83S

...EASTERN NEBRASKA...

CITY           SKY/WX    TMP DP  RH WIND       PRES   REMARKS
NORFOLK        CLOUDY    29  25  85 NW7       29.87F WCI  22
SO SIOUX CITY  CLOUDY    34  29  82 NW9       29.91R WCI  27
TEKAMAH        CLOUDY    33  27  78 N9        29.91R WCI  25
COLUMBUS       CLOUDY    30  25  80 NE7       29.90S WCI  23
ALBION         CLOUDY    27  24  89 NE5       29.87F FOG     WCI  21
OMAHA EPPLEY   CLOUDY    32  27  81 NW8       29.92R WCI  25
OFFUTT AFB     CLOUDY    32  32  99 NW9       29.91F WCI  24
MILLARD        CLOUDY    34  29  84 NW6       29.92F WCI  29
LINCOLN        CLOUDY    27  26  96 N5        29.94S WCI  22
NEBRASKA CITY  CLOUDY    30  29  96 N7        29.92S WCI  24
BEATRICE       PTCLDY    23  22  96 CALM      29.91F
FALLS CITY     MOCLDY    25  24  96 N3        29.91S

...NORTHERN KANSAS...

CITY           SKY/WX    TMP DP  RH WIND       PRES   REMARKS
GOODLAND       CLOUDY    32  24  72 S10       29.78F WCI  24
HILL CITY      CLEAR     26  24  92 W3        29.85F
NORTON         SUNNY     27  23  86 CALM      29.84S
PHILLIPSBURG   CLEAR     27  27 100 CALM      29.87F
SMITH CENTER   CLEAR     25  23  93 CALM      29.88S
HAYS           CLEAR     25  23  92 NE3       29.86F
RUSSELL        CLEAR     25  22  88 SW5       29.87S WCI  19
CONCORDIA      CLEAR     29  28  96 CALM      29.89S
SALINA           N/A    N/A N/A N/A MISG        N/A
TOPEKA         CLEAR     28  25  88 CALM      29.92F



USA.gov is the U.S. government's official web portal to all federal, state and local government web resources and services.